EZY54T EGJB-EGNT

Flight info

Callsign EZY54T
Flight time N/A
Altitude 30000
Route SKERY L22 EMWIP P16 FIMCA/N0428F350 DCT BHD DCT WIGGU DCT AZCAL DCT AVTIC DCT ANJAK/N0429F360 N38 NOKIN UP17 POL
Aircraft A320/M-SDE3FGHIRWY/LB1

Departure

Time 2026-04-30 14:16
Airport Guernsey Airport (EGJB)

Arrival

Time N/A
Airport Newcastle International Airport (EGNT)
Time Latitude Longitude Altitude Speed Heading
2026-04-30 13:52 49.43276 -2.59563 328 ft 0 kts 178°
2026-04-30 14:09 49.43302 -2.59564 329 ft 4 kts 182°
2026-04-30 14:10 49.43329 -2.59560 329 ft 4 kts 192°
2026-04-30 14:10 49.43354 -2.59547 329 ft 4 kts 219°
2026-04-30 14:10 49.43364 -2.59525 331 ft 1 kts 268°
2026-04-30 14:10 49.43364 -2.59518 327 ft 0 kts 268°
2026-04-30 14:12 49.43364 -2.59550 328 ft 6 kts 268°
2026-04-30 14:12 49.43362 -2.59631 330 ft 9 kts 268°
2026-04-30 14:13 49.43355 -2.59729 327 ft 10 kts 257°
2026-04-30 14:13 49.43345 -2.59833 325 ft 11 kts 267°
2026-04-30 14:13 49.43341 -2.59989 315 ft 18 kts 267°
2026-04-30 14:13 49.43334 -2.60240 297 ft 29 kts 267°
2026-04-30 14:14 49.43327 -2.60547 297 ft 21 kts 269°
2026-04-30 14:14 49.43345 -2.60766 299 ft 20 kts 279°
2026-04-30 14:14 49.43364 -2.60960 309 ft 16 kts 271°
2026-04-30 14:14 49.43361 -2.61115 312 ft 13 kts 268°
2026-04-30 14:15 49.43360 -2.61241 313 ft 10 kts 280°
2026-04-30 14:15 49.43393 -2.61314 315 ft 7 kts 313°
2026-04-30 14:15 49.43420 -2.61350 316 ft 5 kts 329°
2026-04-30 14:15 49.43466 -2.61312 315 ft 10 kts 85°
2026-04-30 14:16 49.43468 -2.61257 315 ft 22 kts 86°
2026-04-30 14:16 49.43488 -2.60501 309 ft 115 kts 88°
2026-04-30 14:16 49.43518 -2.59017 778 ft 149 kts 88°
2026-04-30 14:16 49.43546 -2.57334 1581 ft 165 kts 92°
2026-04-30 14:17 49.43569 -2.55581 2408 ft 163 kts 93°
2026-04-30 14:17 49.43610 -2.53786 2929 ft 178 kts 91°
2026-04-30 14:17 49.43704 -2.51771 3260 ft 202 kts 83°
2026-04-30 14:17 49.44193 -2.49616 3581 ft 226 kts 65°
2026-04-30 14:18 49.45226 -2.47602 3950 ft 257 kts 45°
2026-04-30 14:18 49.46822 -2.46138 4006 ft 276 kts 20°
2026-04-30 14:18 49.50612 -2.46660 4459 ft 289 kts 329°
2026-04-30 14:19 49.53672 -2.50620 6472 ft 290 kts 316°
2026-04-30 14:19 49.55173 -2.52736 7338 ft 295 kts 316°
2026-04-30 14:19 49.56695 -2.54898 8203 ft 300 kts 316°
2026-04-30 14:20 49.58214 -2.57063 9057 ft 304 kts 316°
2026-04-30 14:20 49.59783 -2.59300 9920 ft 309 kts 316°
2026-04-30 14:20 49.63102 -2.64048 10795 ft 347 kts 316°
2026-04-30 14:21 49.64895 -2.66618 11414 ft 356 kts 316°
2026-04-30 14:21 49.66727 -2.69239 12170 ft 362 kts 316°
2026-04-30 14:21 49.70466 -2.74583 13728 ft 371 kts 316°
2026-04-30 14:22 49.72370 -2.77310 14390 ft 376 kts 316°
2026-04-30 14:22 49.76245 -2.82875 15707 ft 384 kts 316°
2026-04-30 14:22 49.78211 -2.85705 16376 ft 388 kts 316°
2026-04-30 14:23 49.82197 -2.91457 17707 ft 396 kts 316°
2026-04-30 14:23 49.86266 -2.97336 18926 ft 403 kts 316°
2026-04-30 14:24 49.90392 -3.03313 20091 ft 408 kts 316°
2026-04-30 14:24 49.92470 -3.06334 20679 ft 411 kts 316°
2026-04-30 14:25 49.96679 -3.12463 21780 ft 417 kts 316°
2026-04-30 14:25 50.00615 -3.19030 22905 ft 420 kts 302°
2026-04-30 14:26 50.03674 -3.26822 23893 ft 427 kts 302°
2026-04-30 14:26 50.05573 -3.30410 24329 ft 432 kts 313°
2026-04-30 14:26 50.10481 -3.35891 25200 ft 440 kts 332°
2026-04-30 14:27 50.13224 -3.38067 25619 ft 443 kts 332°
2026-04-30 14:27 50.15969 -3.40261 26036 ft 445 kts 332°
2026-04-30 14:27 50.18730 -3.42484 26455 ft 448 kts 332°
2026-04-30 14:28 50.24310 -3.46950 27267 ft 453 kts 335°
2026-04-30 14:28 50.27282 -3.48631 27672 ft 456 kts 345°
2026-04-30 14:28 50.30403 -3.49566 28064 ft 458 kts 355°
2026-04-30 14:28 50.33585 -3.49723 28453 ft 459 kts
2026-04-30 14:29 50.39958 -3.49337 29225 ft 463 kts
2026-04-30 14:29 50.45357 -3.48625 29864 ft 467 kts
2026-04-30 14:30 50.55837 -3.46394 30127 ft 442 kts
2026-04-30 14:31 50.61911 -3.45146 30126 ft 439 kts
2026-04-30 14:31 50.71000 -3.43434 30112 ft 438 kts
2026-04-30 14:32 50.80087 -3.41728 30111 ft 438 kts
2026-04-30 14:33 50.86141 -3.40566 30113 ft 438 kts
2026-04-30 14:33 50.95219 -3.38794 30104 ft 438 kts
2026-04-30 14:34 51.01282 -3.37612 30099 ft 438 kts
2026-04-30 14:34 51.07336 -3.36438 30104 ft 438 kts
2026-04-30 14:35 51.16381 -3.34691 30098 ft 438 kts
2026-04-30 14:36 51.22475 -3.33494 30098 ft 438 kts
2026-04-30 14:36 51.28478 -3.32284 30117 ft 437 kts
2026-04-30 14:37 51.34502 -3.31052 30132 ft 435 kts
2026-04-30 14:37 51.40497 -3.29831 30131 ft 434 kts
2026-04-30 14:38 51.46480 -3.28621 30126 ft 433 kts
2026-04-30 14:38 51.52459 -3.27408 30121 ft 432 kts
2026-04-30 14:39 51.58423 -3.26180 30119 ft 432 kts
2026-04-30 14:39 51.64376 -3.24953 30217 ft 431 kts
2026-04-30 14:40 51.73266 -3.23125 30229 ft 431 kts
2026-04-30 14:40 51.79210 -3.21904 30223 ft 431 kts
2026-04-30 14:41 51.85173 -3.20671 30206 ft 432 kts
2026-04-30 14:41 51.91144 -3.19463 30189 ft 433 kts
2026-04-30 14:42 51.97165 -3.18804 30160 ft 434 kts
2026-04-30 14:42 52.03203 -3.18512 30110 ft 435 kts
2026-04-30 14:43 52.09255 -3.18172 30121 ft 435 kts
2026-04-30 14:43 52.15307 -3.17712 30125 ft 435 kts
2026-04-30 14:44 52.21358 -3.17216 30126 ft 435 kts
2026-04-30 14:44 52.27414 -3.16728 30121 ft 436 kts
2026-04-30 14:45 52.33488 -3.16259 30124 ft 438 kts
2026-04-30 14:45 52.39578 -3.15791 30128 ft 439 kts
2026-04-30 14:46 52.45684 -3.15321 30133 ft 439 kts
2026-04-30 14:46 52.50764 -3.14927 30124 ft 440 kts
2026-04-30 14:47 52.57931 -3.14367 30130 ft 442 kts
2026-04-30 14:47 52.64079 -3.13889 30131 ft 443 kts
2026-04-30 14:48 52.70179 -3.13186 30131 ft 441 kts 13°
2026-04-30 14:48 52.75926 -3.10075 30132 ft 432 kts 30°
2026-04-30 14:49 52.81368 -3.05810 30132 ft 433 kts 30°
2026-04-30 14:49 52.86825 -3.01539 30134 ft 435 kts 30°
2026-04-30 14:50 52.94344 -2.96437 30156 ft 441 kts 25°
2026-04-30 14:51 53.02985 -2.91177 30150 ft 441 kts 25°
2026-04-30 14:51 53.08590 -2.87155 30149 ft 435 kts 37°
2026-04-30 14:52 53.11089 -2.84371 30154 ft 431 kts 40°
2026-04-30 14:52 53.18502 -2.75834 30165 ft 432 kts 40°
2026-04-30 14:53 53.25922 -2.67271 30178 ft 432 kts 40°
2026-04-30 14:54 53.35814 -2.55864 30163 ft 432 kts 39°
2026-04-30 14:55 53.43204 -2.47305 30198 ft 432 kts 40°
2026-04-30 14:56 53.53060 -2.35759 30190 ft 432 kts 40°
2026-04-30 14:57 53.60411 -2.27012 30202 ft 431 kts 40°
2026-04-30 14:57 53.65310 -2.21182 29554 ft 431 kts 40°
2026-04-30 14:58 53.70163 -2.15392 28587 ft 423 kts 40°
2026-04-30 14:58 53.72558 -2.12531 28114 ft 420 kts 39°
2026-04-30 14:58 53.77824 -2.08294 27214 ft 420 kts 22°
2026-04-30 14:59 53.83304 -2.05074 26336 ft 414 kts 22°
2026-04-30 15:00 53.91393 -2.00276 24936 ft 407 kts 23°
2026-04-30 15:00 53.96714 -1.97100 23972 ft 404 kts 23°
2026-04-30 15:01 54.02027 -1.94024 22920 ft 402 kts 20°
2026-04-30 15:01 54.04676 -1.92562 22421 ft 399 kts 22°
2026-04-30 15:01 54.09871 -1.89375 21442 ft 395 kts 23°
2026-04-30 15:02 54.12445 -1.87749 20967 ft 393 kts 23°
2026-04-30 15:02 54.15063 -1.86411 20506 ft 393 kts 13°
2026-04-30 15:03 54.23101 -1.83876 19135 ft 389 kts 12°
2026-04-30 15:03 54.28408 -1.82236 18199 ft 386 kts 11°
2026-04-30 15:04 54.33673 -1.80596 17205 ft 384 kts 12°
2026-04-30 15:04 54.41441 -1.78139 16099 ft 371 kts 12°
2026-04-30 15:05 54.48939 -1.75762 14330 ft 359 kts 13°
2026-04-30 15:06 54.53852 -1.74202 12715 ft 356 kts 13°
2026-04-30 15:06 54.58558 -1.73430 12006 ft 334 kts 351°
2026-04-30 15:07 54.62962 -1.75605 10938 ft 328 kts 343°
2026-04-30 15:07 54.67387 -1.77972 9823 ft 338 kts 343°
2026-04-30 15:08 54.71960 -1.80397 8422 ft 343 kts 343°
2026-04-30 15:08 54.78553 -1.83884 6542 ft 319 kts 343°
2026-04-30 15:09 54.82656 -1.86059 5542 ft 299 kts 343°
2026-04-30 15:09 54.86530 -1.88127 4541 ft 286 kts 344°
2026-04-30 15:10 54.90325 -1.90159 3104 ft 292 kts 345°
2026-04-30 15:11 54.97078 -1.90984 2170 ft 194 kts 39°
2026-04-30 15:11 54.98729 -1.87948 2143 ft 164 kts 70°
2026-04-30 15:12 55.00136 -1.82704 1841 ft 157 kts 72°
2026-04-30 15:13 55.01053 -1.79271 1436 ft 155 kts 72°
2026-04-30 15:14 55.02738 -1.72949 625 ft 140 kts 74°
2026-04-30 15:14 55.03904 -1.68500 357 ft 129 kts 73°
2026-04-30 15:16 55.06832 -1.57463 2190 ft 226 kts 74°
2026-04-30 15:17 55.08405 -1.47135 2456 ft 212 kts 120°
2026-04-30 15:18 55.02765 -1.49870 2461 ft 231 kts 238°
2026-04-30 15:19 55.00637 -1.57430 2458 ft 231 kts 237°